Stations météo

réclame
Mon MeteoGroup
Cagliari/Elmas, Italie (16560): Température de l'air & dewpoint: 19.06.2018 02:00:00 - 25.06.2018 02:00:00 (CEST)Cagliari/Elmas, Italie (16560): Vitesse du vent: 19.06.2018 02:00:00 - 25.06.2018 02:00:00 (CEST)Cagliari/Elmas, Italie (16560): Direction du vent: 19.06.2018 02:00:00 - 25.06.2018 02:00:00 (CEST)Cagliari/Elmas, Italie (16560): reduced air pressure: 19.06.2018 02:00:00 - 25.06.2018 02:00:00 (CEST)Cagliari/Elmas, Italie (16560): visibility: 19.06.2018 02:00:00 - 25.06.2018 02:00:00 (CEST)Cagliari/Elmas, Italie (16560): Quantités de précipitations: 19.06.2018 02:00:00 - 25.06.2018 02:00:00 (CEST)
Date & Time tt [°C] td [°C] ff [km/h] ff [knt] dd ppp [hPa] vv [km] rr [mm]
25.06.2018 02:00:00 - - - - - - - -
25.06.2018 01:00:00 19,0 17,0 5 3 NW - 10 -
25.06.2018 00:00:00 19,0 17,0 4 2 - - 10 -
24.06.2018 23:00:00 19,6 17,6 5 3 NE 1015,1 10 0,0
24.06.2018 22:00:00 21,0 17,0 11 6 W - 10 -
24.06.2018 21:00:00 20,0 17,0 8 4 NW - 10 -
24.06.2018 20:00:00 20,3 17,7 5 3 NW 1015,5 10 -
24.06.2018 19:00:00 20,0 18,0 8 4 NW - 10 -
24.06.2018 18:00:00 19,0 17,0 4 2 - - 10 -
24.06.2018 17:00:00 18,4 17,7 29 16 ENE 1015,4 3,0 0,0
24.06.2018 16:00:00 27,0 20,0 16 9 SSE - 10 -
24.06.2018 15:00:00 24,0 21,0 18 10 SSE - 10 -
24.06.2018 14:00:00 24,1 20,4 21 11 SSE 1015,9 10 -
24.06.2018 13:00:00 26,0 20,0 21 11 SSE - 10 -
24.06.2018 12:00:00 27,0 20,0 15 8 S - 10 -
24.06.2018 11:00:00 26,6 19,7 11 6 S 1016,0 10 0,0
24.06.2018 10:00:00 26,0 20,0 9 5 SSW - 10 -
24.06.2018 09:00:00 25,0 20,0 4 2 - - 10 -
24.06.2018 08:00:00 22,4 18,9 5 3 NNW 1015,7 10 -
24.06.2018 07:00:00 21,0 19,0 5 3 NW - 10 -
24.06.2018 06:00:00 21,0 19,0 5 3 W - 10 -
24.06.2018 05:00:00 22,4 19,7 4 2 - 1015,0 10 0,0
24.06.2018 04:00:00 23,0 20,0 5 3 SSE - 10 -
24.06.2018 03:00:00 23,0 20,0 8 4 S - 10 -
24.06.2018 02:00:00 23,0 20,2 8 4 S 1015,8 10 -
24.06.2018 01:00:00 23,0 20,0 8 4 SSE - 10 -
24.06.2018 00:00:00 24,0 20,0 9 5 S - 10 -
23.06.2018 23:00:00 23,6 20,6 8 4 S 1015,9 10 0,0
23.06.2018 22:00:00 24,0 19,0 15 8 SE - 10 -
23.06.2018 21:00:00 25,0 18,0 15 8 SE - 10 -
23.06.2018 20:00:00 25,6 18,5 13 7 SSE 1014,5 10 -
23.06.2018 19:00:00 27,0 17,0 21 11 SSE - 10 -
23.06.2018 18:00:00 27,0 17,0 18 10 SSE - 10 -
23.06.2018 17:00:00 28,0 17,9 21 11 SE 1013,7 10 0,0
23.06.2018 16:00:00 28,0 17,0 18 10 SSE - 10 -
23.06.2018 15:00:00 27,0 18,0 18 10 SSE - 10 -
23.06.2018 14:00:00 27,4 18,0 18 10 S 1014,3 10 -
23.06.2018 13:00:00 28,0 15,0 8 4 SSW - 10 -
23.06.2018 12:00:00 27,0 16,0 13 7 WNW - 10 -
23.06.2018 11:00:00 25,2 16,6 13 7 WNW 1014,7 10 0,0
23.06.2018 10:00:00 24,0 17,0 11 6 NW - 10 -
23.06.2018 09:00:00 23,0 16,0 9 5 NW - 10 -
23.06.2018 08:00:00 22,0 16,4 5 3 NNE 1014,7 10 -
23.06.2018 07:00:00 20,0 16,0 8 4 NE - 10 -
23.06.2018 06:00:00 19,0 15,0 8 4 NNE - 10 -
23.06.2018 05:00:00 19,0 14,8 11 6 NNE 1014,6 10 0,0
23.06.2018 04:00:00 20,0 14,0 16 9 N - 10 -
23.06.2018 03:00:00 19,0 14,0 15 8 N - 10 -
23.06.2018 02:00:00 19,9 14,2 8 4 NW 1014,8 10 -
23.06.2018 01:00:00 20,0 16,0 11 6 NNE - 10 -
23.06.2018 00:00:00 22,0 13,0 18 10 NNW - 10 -
22.06.2018 23:00:00 22,4 16,4 21 11 NNW 1014,7 10 0,0
22.06.2018 22:00:00 24,0 17,0 26 14 NNW - 10 -
22.06.2018 21:00:00 26,0 17,0 18 10 NNW - 10 -
22.06.2018 20:00:00 27,5 17,5 24 13 NNW 1013,4 10 -
22.06.2018 19:00:00 30,0 17,0 22 12 NW - 10 -
22.06.2018 18:00:00 31,0 15,0 21 11 WNW - 10 -
22.06.2018 17:00:00 32,0 14,3 21 11 WNW 1013,2 10 0,0
22.06.2018 16:00:00 32,0 13,0 18 10 W - 10 -
22.06.2018 15:00:00 - - - - - - - -
22.06.2018 14:00:00 30,2 17,3 13 7 S 1014,1 10 -
22.06.2018 13:00:00 29,0 19,0 9 5 - - 10 -
22.06.2018 12:00:00 30,0 15,0 13 7 NW - 10 -
22.06.2018 11:00:00 28,7 16,6 13 7 WNW 1015,3 10 0,0
22.06.2018 10:00:00 26,0 18,0 13 7 WNW - 10 -
22.06.2018 09:00:00 23,0 18,0 13 7 NNW - 10 -
22.06.2018 08:00:00 21,1 18,1 11 6 NW 1015,8 10 -
22.06.2018 07:00:00 19,0 17,0 15 8 NNW - 10 -
22.06.2018 06:00:00 - - - - - - - -
22.06.2018 05:00:00 18,9 17,7 9 5 NNW 1015,5 10 0,0
22.06.2018 04:00:00 19,0 18,0 11 6 NNW - 10 -
22.06.2018 03:00:00 20,0 19,0 9 5 NW - 10 -
22.06.2018 02:00:00 20,8 19,8 8 4 NNW 1016,3 10 -
22.06.2018 01:00:00 22,0 21,0 4 2 SE - 10 -
22.06.2018 00:00:00 22,0 21,0 8 4 SE - 10 -
21.06.2018 23:00:00 22,5 21,5 8 4 SSE 1017,0 10 0,0
21.06.2018 22:00:00 23,0 21,0 5 3 SSE - 10 -
21.06.2018 21:00:00 23,0 22,0 8 4 S - 10 -
21.06.2018 20:00:00 23,8 21,5 8 4 S 1015,9 10 -
21.06.2018 19:00:00 24,0 21,0 8 4 S - 10 -
21.06.2018 18:00:00 25,0 21,0 11 6 SSE - 10 -
21.06.2018 17:00:00 24,6 21,3 13 7 SE 1016,2 10 0,0
21.06.2018 16:00:00 26,0 20,0 18 10 SSE - 10 -
21.06.2018 15:00:00 28,0 18,0 21 11 SSE - 10 -
21.06.2018 14:00:00 27,9 16,5 18 10 SSE 1016,8 10 -
21.06.2018 13:00:00 28,0 17,0 11 6 S - 10 -
21.06.2018 12:00:00 28,0 15,0 11 6 SSW - 10 -
21.06.2018 11:00:00 27,4 15,6 8 4 WSW 1017,4 10 0,0
21.06.2018 10:00:00 25,0 17,0 8 4 WNW - 10 -
21.06.2018 09:00:00 22,0 18,0 8 4 NW - 10 -
21.06.2018 08:00:00 20,4 17,1 8 4 NNW 1017,9 10 -
21.06.2018 07:00:00 18,0 17,0 9 5 NNW - 10 -
21.06.2018 06:00:00 17,0 16,0 9 5 NNW - 10 -
21.06.2018 05:00:00 17,8 16,7 5 3 NNW 1017,6 10 0,0
21.06.2018 04:00:00 18,0 17,0 5 3 NNW - 10 -
21.06.2018 03:00:00 19,0 17,0 8 4 N - 10 -
21.06.2018 02:00:00 19,1 17,3 5 3 NNW 1017,8 - -
21.06.2018 01:00:00 - - - - - - - -
21.06.2018 00:00:00 21,0 18,0 8 4 NNW - 10 -
20.06.2018 23:00:00 21,2 16,9 5 3 NNW 1018,5 10 0,0
20.06.2018 22:00:00 23,0 17,0 8 4 WNW - 10 -
20.06.2018 21:00:00 23,0 18,0 8 4 NW - 10 -
20.06.2018 20:00:00 23,9 16,7 9 5 N 1017,6 10 -
20.06.2018 19:00:00 24,0 16,0 11 6 NW - 10 -
20.06.2018 18:00:00 25,0 17,0 11 6 WNW - 10 -
20.06.2018 17:00:00 24,9 17,0 18 10 NW 1018,5 10 0,0
20.06.2018 16:00:00 26,0 16,0 18 10 SSE - 10 -
20.06.2018 15:00:00 28,0 15,0 21 11 SSE - 10 -
20.06.2018 14:00:00 28,2 15,7 18 10 SSE 1017,9 10 -
20.06.2018 13:00:00 27,0 19,0 16 9 SE - 10 -
20.06.2018 12:00:00 27,0 18,0 13 7 S - 10 -
20.06.2018 11:00:00 26,4 19,3 9 5 SSW 1018,3 10 0,0
20.06.2018 10:00:00 25,0 18,0 4 2 - - 10 -
20.06.2018 09:00:00 22,0 18,0 9 5 NW - 10 -
20.06.2018 08:00:00 20,3 17,2 9 5 NNW 1018,3 10 -
20.06.2018 07:00:00 18,0 16,0 11 6 NNW - 10 -
20.06.2018 06:00:00 18,0 16,0 9 5 NNW - 10 -
20.06.2018 05:00:00 18,4 17,2 9 5 NNW 1017,6 10 0,0
20.06.2018 04:00:00 19,0 17,0 8 4 NNW - 10 -
20.06.2018 03:00:00 20,0 18,0 8 4 NW - 10 -
20.06.2018 02:00:00 20,3 18,3 8 4 NNW 1017,8 10 -
20.06.2018 01:00:00 22,0 19,0 4 2 N - 10 -
20.06.2018 00:00:00 22,0 19,0 5 3 ESE - 10 -
19.06.2018 23:00:00 22,3 18,1 8 4 SSE 1018,0 10 0,0
19.06.2018 22:00:00 22,0 18,0 9 5 SE - 10 -
19.06.2018 21:00:00 23,0 18,0 5 3 ESE - 10 -
19.06.2018 20:00:00 22,2 18,7 15 8 S 1016,9 10 -
19.06.2018 19:00:00 21,0 19,0 8 4 SSE - 6 -
19.06.2018 18:00:00 26,0 17,0 21 11 SSE - 10 -
19.06.2018 17:00:00 28,0 16,8 21 11 S 1016,0 10 0,0
19.06.2018 16:00:00 29,0 17,0 16 9 S - 10 -
19.06.2018 15:00:00 29,0 17,0 16 9 S - 10 -
19.06.2018 14:00:00 29,0 16,0 16 9 S 1016,6 10 -
19.06.2018 13:00:00 28,0 16,0 13 7 S - 10 -
19.06.2018 12:00:00 29,0 16,0 15 8 S - 10 -
19.06.2018 11:00:00 29,1 15,4 9 5 WNW 1016,5 10 0,0
19.06.2018 10:00:00 26,0 16,0 15 8 NW - 10 -
19.06.2018 09:00:00 23,0 17,0 13 7 NW - 10 -
19.06.2018 08:00:00 20,5 17,1 16 9 NNW 1016,5 10 -
19.06.2018 07:00:00 19,0 17,0 13 7 NNW - 10 -
19.06.2018 06:00:00 18,0 16,0 15 8 NNW - 10 -
19.06.2018 05:00:00 17,9 16,1 11 6 NNW 1015,9 10 0,0
19.06.2018 04:00:00 - - - - - - - -
19.06.2018 03:00:00 18,0 16,0 11 6 NW - 10 -
19.06.2018 02:00:00 18,9 16,5 15 8 NNW 1016,3 30 -

tt = Température de l'air
td = dewpoint
ff = Vitesse du vent
dd = Direction du vent
ppp = reduced air pressure
vv = visibility
rr = Quantités de précipitations

stations d'obs. à proximité